Time,TemperatureF,DewpointF,PressureIn,WindDirection,WindDirectionDegrees,WindSpeedMPH,WindSpeedGustMPH,Humidity,HourlyPrecipIn,Conditions,Clouds,dailyrainin,SoftwareType,DateUTC
2013-02-07 00:00:00,42.3,36.3,30.11,North,360,0.0,0.0,79,0.00,CLR,,0.01,WeatherDisplay:10.37,2013-02-07 05:00:00,
2013-02-07 00:01:00,42.3,36.3,30.11,North,360,0.0,0.0,79,0.00,CLR,,0.01,WeatherDisplay:10.37,2013-02-07 05:01:00,
2013-02-07 00:02:00,42.3,36.3,30.11,North,360,0.0,0.0,79,0.00,RA,,0.00,WeatherDisplay:10.37,2013-02-07 05:02:00,
2013-02-07 00:07:00,42.2,36.2,30.11,North,360,0.0,0.0,79,0.00,RA,,0.00,WeatherDisplay:10.37,2013-02-07 05:07:00,
2013-02-07 00:12:00,42.0,36.3,30.11,North,360,0.0,0.0,80,0.00,CLR,,0.00,WeatherDisplay:10.37,2013-02-07 05:12:00,
2013-02-07 00:17:00,41.8,36.1,30.11,North,360,0.0,0.0,80,0.00,CLR,,0.00,WeatherDisplay:10.37,2013-02-07 05:17:00,
2013-02-07 00:22:00,41.7,36.0,30.11,North,360,0.0,0.0,80,0.00,CLR,,0.00,WeatherDisplay:10.37,2013-02-07 05:22:00,
2013-02-07 00:27:00,41.5,35.8,30.11,North,360,0.0,0.0,80,0.00,CLR,,0.00,WeatherDisplay:10.37,2013-02-07 05:27:00,
2013-02-07 00:32:00,41.3,35.9,30.11,North,360,0.0,0.0,81,0.00,CLR,,0.00,WeatherDisplay:10.37,2013-02-07 05:32:00,
2013-02-07 00:37:00,41.3,35.9,30.11,North,360,0.0,0.0,81,0.00,CLR,,0.00,WeatherDisplay:10.37,2013-02-07 05:37:00,
2013-02-07 00:42:00,41.3,35.9,30.11,North,360,0.0,0.0,81,0.00,CLR,,0.00,WeatherDisplay:10.37,2013-02-07 05:42:00,
2013-02-07 00:47:00,41.1,35.7,30.11,North,360,0.0,0.0,81,0.00,CLR,,0.00,WeatherDisplay:10.37,2013-02-07 05:47:00,
2013-02-07 00:52:00,41.1,35.7,30.11,North,360,0.0,0.0,81,0.00,CLR,,0.00,WeatherDisplay:10.37,2013-02-07 05:52:00,
2013-02-07 00:57:00,40.9,35.5,30.11,North,360,0.0,0.0,81,0.00,CLR,,0.00,WeatherDisplay:10.37,2013-02-07 05:57:00,
2013-02-07 01:02:00,40.8,35.7,30.11,North,360,0.0,0.0,82,0.00,CLR,,0.00,WeatherDisplay:10.37,2013-02-07 06:02:00,
2013-02-07 01:07:00,40.7,35.6,30.11,North,360,0.0,0.0,82,0.00,CLR,,0.00,WeatherDisplay:10.37,2013-02-07 06:07:00,
2013-02-07 01:12:00,40.7,35.9,30.11,North,360,0.0,0.0,83,0.00,CLR,,0.00,WeatherDisplay:10.37,2013-02-07 06:12:00,
2013-02-07 01:17:00,40.6,35.5,30.11,North,360,0.0,0.0,82,0.00,CLR,,0.00,WeatherDisplay:10.37,2013-02-07 06:17:00,
2013-02-07 01:22:00,40.6,35.5,30.11,North,360,0.0,0.0,82,0.00,CLR,,0.00,WeatherDisplay:10.37,2013-02-07 06:22:00,
2013-02-07 01:27:00,40.4,35.3,30.10,North,360,0.0,0.0,82,0.00,CLR,,0.00,WeatherDisplay:10.37,2013-02-07 06:27:00,
2013-02-07 01:32:00,40.4,35.6,30.10,North,360,0.0,0.0,83,0.00,CLR,,0.00,WeatherDisplay:10.37,2013-02-07 06:32:00,
2013-02-07 01:37:00,40.2,35.4,30.10,North,360,0.0,0.0,83,0.00,CLR,,0.00,WeatherDisplay:10.37,2013-02-07 06:37:00,
2013-02-07 01:42:00,40.2,35.4,30.10,North,360,0.0,0.0,83,0.00,CLR,,0.00,WeatherDisplay:10.37,2013-02-07 06:42:00,
2013-02-07 01:47:00,40.2,35.4,30.10,North,360,0.0,0.0,83,0.00,CLR,,0.00,WeatherDisplay:10.37,2013-02-07 06:47:00,
2013-02-07 01:52:00,40.3,35.5,30.10,North,360,0.0,0.0,83,0.00,CLR,,0.00,WeatherDisplay:10.37,2013-02-07 06:52:00,
2013-02-07 01:57:00,40.5,36.0,30.10,North,360,0.0,0.0,84,0.00,CLR,,0.00,WeatherDisplay:10.37,2013-02-07 06:57:00,
2013-02-07 02:02:00,40.5,35.7,30.11,North,360,0.0,0.0,83,0.00,CLR,,0.00,WeatherDisplay:10.37,2013-02-07 07:02:00,
2013-02-07 02:07:00,40.5,35.7,30.11,North,360,0.0,0.0,83,0.00,CLR,,0.00,WeatherDisplay:10.37,2013-02-07 07:07:00,
2013-02-07 02:12:00,40.4,35.6,30.11,North,360,0.0,0.0,83,0.00,CLR,,0.00,WeatherDisplay:10.37,2013-02-07 07:12:00,
2013-02-07 02:17:00,40.2,35.4,30.11,North,360,0.0,0.0,83,0.00,CLR,,0.00,WeatherDisplay:10.37,2013-02-07 07:17:00,
2013-02-07 02:22:00,40.0,35.6,30.11,North,360,0.0,0.0,84,0.00,CLR,,0.00,WeatherDisplay:10.37,2013-02-07 07:22:00,
2013-02-07 02:27:00,39.8,35.4,30.10,North,360,0.0,0.0,84,0.00,CLR,,0.00,WeatherDisplay:10.37,2013-02-07 07:27:00,
2013-02-07 02:33:00,39.7,35.3,30.10,North,360,0.0,0.0,84,0.00,CLR,,0.00,WeatherDisplay:10.37,2013-02-07 07:33:00,
2013-02-07 02:38:00,39.7,35.3,30.10,North,360,0.0,0.0,84,0.00,CLR,,0.00,WeatherDisplay:10.37,2013-02-07 07:38:00,
2013-02-07 02:43:00,39.8,35.7,30.10,North,360,0.0,0.0,85,0.00,CLR,,0.00,WeatherDisplay:10.37,2013-02-07 07:43:00,
2013-02-07 02:48:00,40.1,36.0,30.10,North,360,0.0,0.0,85,0.00,CLR,,0.00,WeatherDisplay:10.37,2013-02-07 07:48:00,
2013-02-07 02:53:00,40.4,36.2,30.10,North,360,0.0,0.0,85,0.00,CLR,,0.00,WeatherDisplay:10.37,2013-02-07 07:53:00,
2013-02-07 02:58:00,40.5,36.3,30.10,North,360,0.0,0.0,85,0.00,CLR,,0.00,WeatherDisplay:10.37,2013-02-07 07:58:00,
2013-02-07 03:03:00,40.4,35.9,30.10,North,360,0.0,0.0,84,0.00,CLR,,0.00,WeatherDisplay:10.37,2013-02-07 08:03:00,
2013-02-07 03:08:00,40.4,36.2,30.10,North,360,0.0,0.0,85,0.00,CLR,,0.00,WeatherDisplay:10.37,2013-02-07 08:08:00,
2013-02-07 03:13:00,40.3,36.1,30.10,North,360,0.0,0.0,85,0.00,CLR,,0.00,WeatherDisplay:10.37,2013-02-07 08:13:00,
2013-02-07 03:18:00,40.1,36.0,30.11,North,360,0.0,0.0,85,0.00,CLR,,0.00,WeatherDisplay:10.37,2013-02-07 08:18:00,
2013-02-07 03:23:00,40.0,35.9,30.11,North,360,0.0,0.0,85,0.00,CLR,,0.00,WeatherDisplay:10.37,2013-02-07 08:23:00,
2013-02-07 03:28:00,40.0,35.9,30.11,North,360,0.0,0.0,85,0.00,CLR,,0.00,WeatherDisplay:10.37,2013-02-07 08:28:00,
2013-02-07 03:33:00,40.0,36.2,30.11,North,360,0.0,0.0,86,0.00,CLR,,0.00,WeatherDisplay:10.37,2013-02-07 08:33:00,
2013-02-07 03:38:00,40.1,36.2,30.12,North,360,0.0,0.0,86,0.00,CLR,,0.00,WeatherDisplay:10.37,2013-02-07 08:38:00,
2013-02-07 03:43:00,40.1,36.2,30.12,North,360,0.0,0.0,86,0.00,CLR,,0.00,WeatherDisplay:10.37,2013-02-07 08:43:00,
2013-02-07 03:48:00,40.0,36.2,30.12,North,360,0.0,0.0,86,0.00,CLR,,0.00,WeatherDisplay:10.37,2013-02-07 08:48:00,
2013-02-07 03:53:00,39.8,36.0,30.12,North,360,0.0,0.0,86,0.00,CLR,,0.00,WeatherDisplay:10.37,2013-02-07 08:53:00,
2013-02-07 03:58:00,39.7,35.9,30.12,North,360,0.0,0.0,86,0.00,CLR,,0.00,WeatherDisplay:10.37,2013-02-07 08:58:00,
2013-02-07 04:03:00,39.7,35.9,30.13,North,360,0.0,0.0,86,0.00,CLR,,0.00,WeatherDisplay:10.37,2013-02-07 09:03:00,
2013-02-07 04:08:00,39.8,36.0,30.13,North,360,0.0,0.0,86,0.00,CLR,,0.00,WeatherDisplay:10.37,2013-02-07 09:08:00,
2013-02-07 04:13:00,39.9,36.1,30.14,North,360,0.0,0.0,86,0.00,CLR,,0.00,WeatherDisplay:10.37,2013-02-07 09:13:00,
2013-02-07 04:18:00,39.9,36.3,30.14,North,360,0.0,0.0,87,0.00,CLR,,0.00,WeatherDisplay:10.37,2013-02-07 09:18:00,
2013-02-07 04:23:00,39.9,36.3,30.14,North,360,0.0,0.0,87,0.00,CLR,,0.00,WeatherDisplay:10.37,2013-02-07 09:23:00,
2013-02-07 04:28:00,39.9,36.1,30.13,North,360,0.0,0.0,86,0.00,CLR,,0.00,WeatherDisplay:10.37,2013-02-07 09:28:00,
2013-02-07 04:33:00,39.9,36.3,30.14,North,360,0.0,0.0,87,0.00,CLR,,0.00,WeatherDisplay:10.37,2013-02-07 09:33:00,
2013-02-07 04:38:00,39.9,36.3,30.14,North,360,0.0,0.0,87,0.00,CLR,,0.00,WeatherDisplay:10.37,2013-02-07 09:38:00,
2013-02-07 04:43:00,39.8,36.2,30.14,North,360,0.0,0.0,87,0.00,CLR,,0.00,WeatherDisplay:10.37,2013-02-07 09:43:00,
2013-02-07 04:48:00,39.8,36.2,30.14,North,360,0.0,0.0,87,0.00,CLR,,0.00,WeatherDisplay:10.37,2013-02-07 09:48:00,
2013-02-07 04:53:00,39.7,36.1,30.14,North,360,0.0,0.0,87,0.00,CLR,,0.00,WeatherDisplay:10.37,2013-02-07 09:53:00,
2013-02-07 04:58:00,39.6,36.0,30.14,North,360,0.0,0.0,87,0.00,CLR,,0.00,WeatherDisplay:10.37,2013-02-07 09:58:00,
2013-02-07 05:03:00,39.6,36.0,30.14,North,360,0.0,0.0,87,0.00,CLR,,0.00,WeatherDisplay:10.37,2013-02-07 10:03:00,
2013-02-07 05:08:00,39.6,36.0,30.13,North,360,0.0,0.0,87,0.00,CLR,,0.00,WeatherDisplay:10.37,2013-02-07 10:08:00,
2013-02-07 05:13:00,39.6,36.0,30.13,North,360,0.0,0.0,87,0.00,CLR,,0.00,WeatherDisplay:10.37,2013-02-07 10:13:00,
2013-02-07 05:18:00,39.6,36.0,30.13,North,360,0.0,0.0,87,0.00,CLR,,0.00,WeatherDisplay:10.37,2013-02-07 10:18:00,
2013-02-07 05:23:00,39.6,37.5,30.13,North,360,0.0,0.0,92,0.00,CLR,,0.00,WeatherDisplay:10.37,2013-02-07 10:23:00,
2013-02-07 05:28:00,39.6,37.5,30.12,North,360,0.0,0.0,92,0.00,CLR,,0.00,WeatherDisplay:10.37,2013-02-07 10:28:00,
2013-02-07 05:33:00,39.5,36.0,30.12,North,360,0.0,0.0,87,0.00,CLR,,0.00,WeatherDisplay:10.37,2013-02-07 10:33:00,
2013-02-07 05:38:00,39.7,36.1,30.12,North,360,0.0,0.0,87,0.00,CLR,,0.00,WeatherDisplay:10.37,2013-02-07 10:38:00,
2013-02-07 05:43:00,40.0,36.7,30.12,North,360,0.0,0.0,88,0.00,CLR,,0.00,WeatherDisplay:10.37,2013-02-07 10:43:00,
2013-02-07 05:48:00,40.2,36.6,30.12,North,360,0.0,0.0,87,0.00,CLR,,0.00,WeatherDisplay:10.37,2013-02-07 10:48:00,
2013-02-07 05:53:00,40.3,38.2,30.12,North,360,0.0,0.0,92,0.00,CLR,,0.00,WeatherDisplay:10.37,2013-02-07 10:53:00,
2013-02-07 05:58:00,40.3,38.2,30.12,North,360,0.0,0.0,92,0.00,CLR,,0.00,WeatherDisplay:10.37,2013-02-07 10:58:00,
2013-02-07 06:03:00,40.4,36.8,30.12,North,360,0.0,0.0,87,0.00,CLR,,0.00,WeatherDisplay:10.37,2013-02-07 11:03:00,
2013-02-07 06:08:00,40.7,37.4,30.11,North,360,0.0,0.0,88,0.00,CLR,,0.00,WeatherDisplay:10.37,2013-02-07 11:08:00,
2013-02-07 06:13:00,41.1,37.8,30.11,North,360,0.0,0.0,88,0.00,CLR,,0.00,WeatherDisplay:10.37,2013-02-07 11:13:00,
2013-02-07 06:18:00,41.2,37.9,30.12,North,360,0.0,0.0,88,0.00,CLR,,0.00,WeatherDisplay:10.37,2013-02-07 11:18:00,
2013-02-07 06:23:00,41.3,38.0,30.12,North,360,0.0,0.0,88,0.00,CLR,,0.00,WeatherDisplay:10.37,2013-02-07 11:23:00,
2013-02-07 06:28:00,41.2,37.6,30.12,North,360,0.0,0.0,87,0.00,CLR,,0.00,WeatherDisplay:10.37,2013-02-07 11:28:00,
2013-02-07 06:33:00,41.1,37.5,30.11,North,360,0.0,0.0,87,0.00,CLR,,0.00,WeatherDisplay:10.37,2013-02-07 11:33:00,
2013-02-07 06:38:00,41.1,37.5,30.12,North,360,0.0,0.0,87,0.00,CLR,,0.00,WeatherDisplay:10.37,2013-02-07 11:38:00,
2013-02-07 06:43:00,41.2,37.9,30.12,North,360,0.0,0.0,88,0.00,CLR,,0.00,WeatherDisplay:10.37,2013-02-07 11:43:00,
2013-02-07 06:48:00,41.3,38.0,30.12,North,360,0.0,0.0,88,0.00,CLR,,0.00,WeatherDisplay:10.37,2013-02-07 11:48:00,
2013-02-07 06:53:00,41.5,38.2,30.11,North,360,0.0,0.0,88,0.00,CLR,,0.00,WeatherDisplay:10.37,2013-02-07 11:53:00,
2013-02-07 06:58:00,42.0,38.7,30.11,North,360,0.0,0.0,88,0.00,CLR,,0.00,WeatherDisplay:10.37,2013-02-07 11:58:00,
2013-02-07 07:03:00,42.0,38.7,30.12,North,360,0.0,0.0,88,0.00,CLR,,0.00,WeatherDisplay:10.37,2013-02-07 12:03:00,
2013-02-07 07:08:00,41.9,38.3,30.12,North,360,0.0,0.0,87,0.00,CLR,,0.00,WeatherDisplay:10.37,2013-02-07 12:08:00,
2013-02-07 07:13:00,41.8,38.2,30.12,North,360,0.0,0.0,87,0.00,CLR,,0.00,WeatherDisplay:10.37,2013-02-07 12:13:00,
2013-02-07 07:18:00,41.8,38.2,30.11,North,360,0.0,0.0,87,0.00,CLR,,0.00,WeatherDisplay:10.37,2013-02-07 12:18:00,
2013-02-07 07:23:00,41.9,38.3,30.11,North,360,0.0,0.0,87,0.00,CLR,,0.00,WeatherDisplay:10.37,2013-02-07 12:23:00,
2013-02-07 07:28:00,41.9,38.3,30.11,North,360,0.0,0.0,87,0.00,CLR,,0.00,WeatherDisplay:10.37,2013-02-07 12:28:00,
2013-02-07 07:33:00,41.9,38.3,30.11,North,360,0.0,0.0,87,0.00,CLR,,0.00,WeatherDisplay:10.37,2013-02-07 12:33:00,
2013-02-07 07:38:00,42.1,38.5,30.11,North,360,0.0,0.0,87,0.00,CLR,,0.00,WeatherDisplay:10.37,2013-02-07 12:38:00,
2013-02-07 07:43:00,42.2,38.6,30.11,North,360,0.0,0.0,87,0.00,CLR,,0.00,WeatherDisplay:10.37,2013-02-07 12:43:00,
2013-02-07 07:48:00,42.4,39.1,30.11,North,360,0.0,0.0,88,0.00,CLR,,0.00,WeatherDisplay:10.37,2013-02-07 12:48:00,
2013-02-07 07:53:00,42.9,39.6,30.11,North,360,0.0,0.0,88,0.00,CLR,,0.00,WeatherDisplay:10.37,2013-02-07 12:53:00,
2013-02-07 07:58:00,43.8,40.8,30.11,North,360,0.0,0.0,89,0.00,CLR,,0.00,WeatherDisplay:10.37,2013-02-07 12:58:00,
2013-02-07 08:03:00,43.7,40.4,30.11,North,360,0.0,0.0,88,0.00,CLR,,0.00,WeatherDisplay:10.37,2013-02-07 13:03:00,
2013-02-07 08:08:00,43.5,39.9,30.11,North,360,0.0,0.0,87,0.00,CLR,,0.00,WeatherDisplay:10.37,2013-02-07 13:08:00,
2013-02-07 08:13:00,43.5,39.9,30.11,North,360,0.0,0.0,87,0.00,CLR,,0.00,WeatherDisplay:10.37,2013-02-07 13:13:00,
2013-02-07 08:18:00,43.7,40.1,30.11,North,360,0.0,0.0,87,0.00,CLR,,0.00,WeatherDisplay:10.37,2013-02-07 13:18:00,
2013-02-07 08:23:00,44.1,40.8,30.11,North,360,0.0,0.0,88,0.00,CLR,,0.00,WeatherDisplay:10.37,2013-02-07 13:23:00,
2013-02-07 08:28:00,44.5,41.2,30.12,North,360,0.0,0.0,88,0.00,CLR,,0.00,WeatherDisplay:10.37,2013-02-07 13:28:00,
2013-02-07 08:33:00,44.8,41.5,30.12,North,360,0.0,0.0,88,0.00,CLR,,0.00,WeatherDisplay:10.37,2013-02-07 13:33:00,
2013-02-07 08:38:00,45.1,41.5,30.13,North,360,0.0,0.0,87,0.00,CLR,,0.00,WeatherDisplay:10.37,2013-02-07 13:38:00,
2013-02-07 08:43:00,45.5,41.9,30.12,North,360,0.0,0.0,87,0.00,CLR,,0.00,WeatherDisplay:10.37,2013-02-07 13:43:00,
2013-02-07 08:48:00,45.6,42.0,30.12,North,360,0.0,0.0,87,0.00,CLR,,0.00,WeatherDisplay:10.37,2013-02-07 13:48:00,
2013-02-07 08:53:00,45.9,42.2,30.11,North,360,0.0,0.0,87,0.00,CLR,,0.00,WeatherDisplay:10.37,2013-02-07 13:53:00,
2013-02-07 08:58:00,46.3,42.6,30.11,North,360,0.0,0.0,87,0.00,CLR,,0.00,WeatherDisplay:10.37,2013-02-07 13:58:00,
2013-02-07 09:03:00,46.7,43.0,30.11,North,360,0.0,0.0,87,0.00,CLR,,0.00,WeatherDisplay:10.37,2013-02-07 14:03:00,
2013-02-07 09:08:00,47.0,43.0,30.12,North,360,1.2,0.0,86,0.00,CLR,,0.00,WeatherDisplay:10.37,2013-02-07 14:08:00,
2013-02-07 09:13:00,46.9,42.6,30.12,North,360,0.0,0.0,85,0.00,CLR,,0.00,WeatherDisplay:10.37,2013-02-07 14:13:00,
2013-02-07 09:18:00,46.7,42.4,30.11,North,360,0.0,0.0,85,0.00,CLR,,0.00,WeatherDisplay:10.37,2013-02-07 14:18:00,
2013-02-07 09:23:00,46.6,42.3,30.11,North,360,0.0,0.4,85,0.00,CLR,,0.00,WeatherDisplay:10.37,2013-02-07 14:23:00,
2013-02-07 09:28:00,46.7,42.7,30.10,North,360,1.2,0.0,86,0.00,CLR,,0.00,WeatherDisplay:10.37,2013-02-07 14:28:00,
2013-02-07 09:33:00,46.9,42.9,30.11,North,360,0.0,0.0,86,0.00,CLR,,0.00,WeatherDisplay:10.37,2013-02-07 14:33:00,
2013-02-07 09:38:00,47.4,43.4,30.11,North,360,0.0,0.0,86,0.00,CLR,,0.00,WeatherDisplay:10.37,2013-02-07 14:38:00,
2013-02-07 09:43:00,47.8,43.8,30.11,North,360,0.0,0.0,86,0.00,CLR,,0.00,WeatherDisplay:10.37,2013-02-07 14:43:00,
2013-02-07 09:48:00,48.0,44.0,30.11,North,360,0.0,0.0,86,0.00,CLR,,0.00,WeatherDisplay:10.37,2013-02-07 14:48:00,
2013-02-07 09:53:00,48.3,44.3,30.11,North,360,0.0,0.0,86,0.00,CLR,,0.00,WeatherDisplay:10.37,2013-02-07 14:53:00,
2013-02-07 09:58:00,48.3,44.0,30.11,North,360,0.0,0.0,85,0.00,CLR,,0.00,WeatherDisplay:10.37,2013-02-07 14:58:00,
2013-02-07 10:04:00,48.4,44.1,30.11,North,360,0.0,0.0,85,0.00,CLR,,0.01,WeatherDisplay:10.37,2013-02-07 15:04:00,
2013-02-07 10:09:00,48.5,44.5,30.11,North,360,0.0,0.0,86,0.01,RA,,0.01,WeatherDisplay:10.37,2013-02-07 15:09:00,
2013-02-07 10:14:00,48.4,44.4,30.12,NW,325,0.0,0.0,86,0.01,,,0.01,WeatherDisplay:10.37,2013-02-07 15:14:00,
2013-02-07 10:19:00,48.3,44.3,30.11,North,360,0.0,0.0,86,0.01,CLR,,0.01,WeatherDisplay:10.37,2013-02-07 15:19:00,
2013-02-07 10:24:00,48.2,45.4,30.10,North,360,0.0,0.0,90,0.02,RA,,0.02,WeatherDisplay:10.37,2013-02-07 15:24:00,
2013-02-07 10:29:00,48.0,44.3,30.10,NE,34,0.0,0.0,87,0.02,RA,,0.02,WeatherDisplay:10.37,2013-02-07 15:29:00,
2013-02-07 10:34:00,47.8,44.1,30.11,North,360,0.0,0.0,87,0.03,RA,,0.03,WeatherDisplay:10.37,2013-02-07 15:34:00,
2013-02-07 10:39:00,47.7,44.0,30.11,North,10,0.0,0.0,87,0.03,RA,,0.03,WeatherDisplay:10.37,2013-02-07 15:39:00,
2013-02-07 10:44:00,47.7,44.0,30.11,North,10,0.0,0.0,87,0.03,,,0.03,WeatherDisplay:10.37,2013-02-07 15:44:00,
2013-02-07 10:49:00,47.7,44.3,30.11,NNE,26,0.0,0.0,88,0.04,RA,,0.04,WeatherDisplay:10.37,2013-02-07 15:49:00,
2013-02-07 10:54:00,47.8,44.4,30.11,North,360,1.2,0.0,88,0.04,RA,,0.04,WeatherDisplay:10.37,2013-02-07 15:54:00,
2013-02-07 10:59:00,47.8,44.4,30.11,North,355,0.0,0.0,88,0.04,,,0.04,WeatherDisplay:10.37,2013-02-07 15:59:00,
2013-02-07 11:04:00,47.8,44.7,30.11,North,10,3.5,3.5,89,0.03,CLR,,0.04,WeatherDisplay:10.37,2013-02-07 16:04:00,
2013-02-07 11:09:00,47.9,44.8,30.10,North,360,0.0,0.0,89,0.04,RA,,0.05,WeatherDisplay:10.37,2013-02-07 16:09:00,
2013-02-07 11:14:00,47.9,44.8,30.11,North,9,0.0,0.0,89,0.04,RA,,0.05,WeatherDisplay:10.37,2013-02-07 16:14:00,
2013-02-07 11:19:00,48.0,44.9,30.11,NNE,14,0.0,0.0,89,0.05,RA,,0.06,WeatherDisplay:10.37,2013-02-07 16:19:00,
2013-02-07 11:24:00,48.1,45.3,30.10,NNE,13,0.0,0.0,90,0.04,RA,,0.06,WeatherDisplay:10.37,2013-02-07 16:24:00,
2013-02-07 11:29:00,48.1,45.3,30.10,NE,37,0.0,0.0,90,0.05,RA,,0.07,WeatherDisplay:10.37,2013-02-07 16:29:00,
2013-02-07 11:34:00,48.1,45.3,30.09,NNE,18,0.0,0.0,90,0.04,RA,,0.07,WeatherDisplay:10.37,2013-02-07 16:34:00,
2013-02-07 11:39:00,48.1,45.3,30.10,ENE,72,0.0,0.0,90,0.05,RA,,0.08,WeatherDisplay:10.37,2013-02-07 16:39:00,
2013-02-07 11:44:00,48.1,45.3,30.10,North,360,0.0,0.0,90,0.05,RA,,0.08,WeatherDisplay:10.37,2013-02-07 16:44:00,
2013-02-07 11:49:00,48.1,45.3,30.10,North,360,0.0,0.0,90,0.05,RA,,0.09,WeatherDisplay:10.37,2013-02-07 16:49:00,
2013-02-07 11:54:00,48.1,45.3,30.09,North,360,3.5,0.0,90,0.06,RA,,0.10,WeatherDisplay:10.37,2013-02-07 16:54:00,
2013-02-07 11:59:00,48.1,45.3,30.09,North,350,0.0,0.0,90,0.06,RA,,0.10,WeatherDisplay:10.37,2013-02-07 16:59:00,
2013-02-07 12:04:00,48.2,45.7,30.09,North,360,0.0,0.0,91,0.07,RA,,0.11,WeatherDisplay:10.37,2013-02-07 17:04:00,
2013-02-07 12:09:00,48.4,45.9,30.09,North,360,0.0,0.0,91,0.07,RA,,0.12,WeatherDisplay:10.37,2013-02-07 17:09:00,
2013-02-07 12:14:00,48.5,46.0,30.08,North,360,0.0,0.0,91,0.08,RA,,0.13,WeatherDisplay:10.37,2013-02-07 17:14:00,
2013-02-07 12:19:00,48.4,45.9,30.08,North,360,0.0,0.0,91,0.08,RA,,0.14,WeatherDisplay:10.37,2013-02-07 17:19:00,
2013-02-07 12:24:00,48.3,45.8,30.08,North,360,0.0,0.0,91,0.08,RA,,0.14,WeatherDisplay:10.37,2013-02-07 17:24:00,
2013-02-07 12:29:00,48.3,45.8,30.09,North,360,0.0,0.0,91,0.08,RA,,0.15,WeatherDisplay:10.37,2013-02-07 17:29:00,
2013-02-07 12:34:00,48.3,45.8,30.08,ENE,66,0.0,0.0,91,0.09,RA,,0.16,WeatherDisplay:10.37,2013-02-07 17:34:00,
2013-02-07 12:39:00,48.3,45.8,30.07,North,360,4.6,4.6,91,0.09,RA,,0.17,WeatherDisplay:10.37,2013-02-07 17:39:00,
2013-02-07 12:44:00,48.4,45.9,30.06,NE,42,4.6,4.6,91,0.10,RA,,0.18,WeatherDisplay:10.37,2013-02-07 17:44:00,
2013-02-07 12:49:00,48.3,45.8,30.06,NE,42,0.0,0.0,91,0.10,RA,,0.19,WeatherDisplay:10.37,2013-02-07 17:49:00,
2013-02-07 12:54:00,48.4,45.9,30.05,North,360,3.5,3.5,91,0.10,RA,,0.20,WeatherDisplay:10.37,2013-02-07 17:54:00,
2013-02-07 12:59:00,48.3,45.8,30.04,North,360,3.5,3.5,91,0.10,RA,,0.20,WeatherDisplay:10.37,2013-02-07 17:59:00,
2013-02-07 13:04:00,48.3,46.1,30.03,North,360,1.2,1.2,92,0.10,RA,,0.21,WeatherDisplay:10.37,2013-02-07 18:04:00,
2013-02-07 13:09:00,48.4,46.2,30.04,North,5,2.0,2.0,92,0.10,RA,,0.22,WeatherDisplay:10.37,2013-02-07 18:09:00,
2013-02-07 13:14:00,48.3,46.1,30.03,NNE,26,0.0,0.0,92,0.09,RA,,0.22,WeatherDisplay:10.37,2013-02-07 18:14:00,
2013-02-07 13:19:00,48.3,46.1,30.03,NNE,28,0.0,0.0,92,0.09,RA,,0.23,WeatherDisplay:10.37,2013-02-07 18:19:00,
2013-02-07 13:24:00,48.3,46.1,30.03,North,360,0.0,0.0,92,0.10,RA,,0.25,WeatherDisplay:10.37,2013-02-07 18:24:00,
2013-02-07 13:29:00,48.3,46.1,30.02,North,360,0.0,0.0,92,0.11,RA,,0.26,WeatherDisplay:10.37,2013-02-07 18:29:00,
2013-02-07 13:34:00,48.2,46.0,30.03,NE,36,0.0,0.0,92,0.11,RA,,0.27,WeatherDisplay:10.37,2013-02-07 18:34:00,
2013-02-07 13:39:00,48.1,45.9,30.02,North,360,0.0,0.0,92,0.12,RA,,0.29,WeatherDisplay:10.37,2013-02-07 18:39:00,
2013-02-07 13:44:00,48.2,46.0,30.02,North,11,3.5,3.5,92,0.12,RA,,0.30,WeatherDisplay:10.37,2013-02-07 18:44:00,
2013-02-07 13:49:00,48.1,45.9,30.01,North,360,0.0,0.3,92,0.13,RA,,0.32,WeatherDisplay:10.37,2013-02-07 18:49:00,
2013-02-07 13:54:00,48.0,45.8,30.01,NNE,18,3.5,3.5,92,0.13,RA,,0.34,WeatherDisplay:10.37,2013-02-07 18:54:00,
2013-02-07 13:59:00,48.0,45.8,30.02,North,360,0.0,0.0,92,0.15,RA,,0.36,WeatherDisplay:10.37,2013-02-07 18:59:00,
2013-02-07 14:04:00,48.0,45.8,30.02,North,360,2.3,0.0,92,0.17,RA,,0.39,WeatherDisplay:10.37,2013-02-07 19:04:00,
2013-02-07 14:09:00,47.9,45.7,30.03,North,360,0.0,0.0,92,0.20,RA,,0.42,WeatherDisplay:10.37,2013-02-07 19:09:00,
2013-02-07 14:14:00,47.8,45.6,30.03,North,360,0.0,0.0,92,0.22,RA,,0.44,WeatherDisplay:10.37,2013-02-07 19:14:00,
2013-02-07 14:19:00,47.9,45.7,30.02,North,360,0.0,0.0,92,0.25,RA,,0.48,WeatherDisplay:10.37,2013-02-07 19:19:00,
2013-02-07 14:24:00,47.9,45.7,30.02,NNE,28,5.8,5.8,92,0.27,RA,,0.51,WeatherDisplay:10.37,2013-02-07 19:24:00,
2013-02-07 14:29:00,47.9,45.7,30.01,NNE,17,4.6,4.6,92,0.28,RA,,0.54,WeatherDisplay:10.37,2013-02-07 19:29:00,
2013-02-07 14:34:00,47.9,45.7,30.00,North,5,4.6,4.6,92,0.30,RA,,0.57,WeatherDisplay:10.37,2013-02-07 19:34:00,
2013-02-07 14:39:00,47.9,45.7,30.00,WNW,292,1.2,1.2,92,0.30,RA,,0.59,WeatherDisplay:10.37,2013-02-07 19:39:00,
2013-02-07 14:44:00,47.8,45.6,30.00,North,9,0.0,0.0,92,0.30,RA,,0.60,WeatherDisplay:10.37,2013-02-07 19:44:00,
2013-02-07 14:49:00,47.8,45.6,30.00,North,360,3.5,3.5,92,0.30,RA,,0.63,WeatherDisplay:10.37,2013-02-07 19:49:00,
2013-02-07 14:54:00,47.7,45.5,29.99,North,360,4.6,4.6,92,0.31,RA,,0.64,WeatherDisplay:10.37,2013-02-07 19:54:00,
2013-02-07 14:59:00,47.6,45.4,29.99,NNW,336,0.0,0.0,92,0.34,RA,,0.69,WeatherDisplay:10.37,2013-02-07 19:59:00,
2013-02-07 15:04:00,47.5,45.3,29.98,NNW,330,3.5,3.5,92,0.33,RA,,0.71,WeatherDisplay:10.37,2013-02-07 20:04:00,
2013-02-07 15:09:00,47.5,45.3,29.98,NNE,19,0.0,0.0,92,0.33,RA,,0.75,WeatherDisplay:10.37,2013-02-07 20:09:00,
2013-02-07 15:14:00,47.5,45.3,29.97,NW,323,5.8,5.8,92,0.35,RA,,0.79,WeatherDisplay:10.37,2013-02-07 20:14:00,
2013-02-07 15:19:00,47.5,45.3,29.97,North,360,0.0,0.0,92,0.33,RA,,0.81,WeatherDisplay:10.37,2013-02-07 20:19:00,
2013-02-07 15:24:00,47.5,45.3,29.98,North,360,4.6,4.6,92,0.32,RA,,0.83,WeatherDisplay:10.37,2013-02-07 20:24:00,
2013-02-07 15:29:00,47.5,45.6,29.97,North,360,3.5,3.5,93,0.32,RA,,0.86,WeatherDisplay:10.37,2013-02-07 20:29:00,
2013-02-07 15:34:00,47.4,45.5,29.97,NNE,32,3.5,3.5,93,0.31,RA,,0.88,WeatherDisplay:10.37,2013-02-07 20:34:00,
2013-02-07 15:39:00,47.4,45.5,29.97,North,360,0.0,0.0,93,0.31,RA,,0.90,WeatherDisplay:10.37,2013-02-07 20:39:00,
2013-02-07 15:44:00,47.4,45.5,29.97,NNW,345,1.2,0.0,93,0.33,RA,,0.93,WeatherDisplay:10.37,2013-02-07 20:44:00,
2013-02-07 15:49:00,47.5,45.6,29.96,East,101,10.4,10.4,93,0.33,RA,,0.95,WeatherDisplay:10.37,2013-02-07 20:49:00,
2013-02-07 15:54:00,47.6,45.7,29.96,North,360,2.3,2.3,93,0.33,RA,,0.97,WeatherDisplay:10.37,2013-02-07 20:54:00,
2013-02-07 15:59:00,47.6,45.7,29.96,North,5,0.0,0.0,93,0.31,RA,,1.00,WeatherDisplay:10.37,2013-02-07 20:59:00,
2013-02-07 16:04:00,47.6,45.7,29.96,ESE,115,5.8,5.8,93,0.31,RA,,1.02,WeatherDisplay:10.37,2013-02-07 21:04:00,
2013-02-07 16:09:00,47.6,45.7,29.96,North,360,0.0,0.0,93,0.28,RA,,1.03,WeatherDisplay:10.37,2013-02-07 21:09:00,
2013-02-07 16:14:00,47.6,45.7,29.96,North,360,3.5,3.5,93,0.24,RA,,1.04,WeatherDisplay:10.37,2013-02-07 21:14:00,
2013-02-07 16:19:00,47.6,45.7,29.96,NNE,22,0.0,0.0,93,0.24,RA,,1.05,WeatherDisplay:10.37,2013-02-07 21:19:00,
2013-02-07 16:24:00,47.5,45.6,29.96,NE,37,4.6,0.0,93,0.24,RA,,1.07,WeatherDisplay:10.37,2013-02-07 21:24:00,
2013-02-07 16:29:00,47.5,45.6,29.95,NNE,32,0.0,0.0,93,0.23,RA,,1.09,WeatherDisplay:10.37,2013-02-07 21:29:00,
2013-02-07 16:34:00,47.4,45.5,29.95,North,360,4.6,4.6,93,0.23,RA,,1.11,WeatherDisplay:10.37,2013-02-07 21:34:00,
2013-02-07 16:39:00,47.2,45.3,29.94,NNW,342,6.9,0.0,93,0.23,RA,,1.13,WeatherDisplay:10.37,2013-02-07 21:39:00,
2013-02-07 16:44:00,47.2,45.3,29.93,North,355,2.3,2.3,93,0.21,RA,,1.14,WeatherDisplay:10.37,2013-02-07 21:44:00,
2013-02-07 16:49:00,47.2,45.3,29.93,North,360,11.5,11.5,93,0.20,RA,,1.15,WeatherDisplay:10.37,2013-02-07 21:49:00,
2013-02-07 16:54:00,47.3,45.4,29.93,North,355,3.5,3.5,93,0.19,RA,,1.17,WeatherDisplay:10.37,2013-02-07 21:54:00,
2013-02-07 16:59:00,47.3,45.4,29.93,NNE,13,2.3,0.0,93,0.17,RA,,1.17,WeatherDisplay:10.37,2013-02-07 21:59:00,
2013-02-07 17:04:00,47.2,45.3,29.92,ENE,57,3.5,3.5,93,0.16,RA,,1.18,WeatherDisplay:10.37,2013-02-07 22:04:00,
2013-02-07 17:09:00,47.3,45.4,29.91,North,350,10.4,10.4,93,0.16,RA,,1.19,WeatherDisplay:10.37,2013-02-07 22:09:00,
2013-02-07 17:14:00,47.3,45.4,29.91,North,360,6.0,6.0,93,0.16,RA,,1.19,WeatherDisplay:10.37,2013-02-07 22:14:00,
2013-02-07 17:19:00,47.3,45.4,29.92,NNE,28,6.9,6.9,93,0.15,RA,,1.20,WeatherDisplay:10.37,2013-02-07 22:19:00,
2013-02-07 17:24:00,47.3,45.4,29.92,North,360,6.9,6.9,93,0.13,RA,,1.20,WeatherDisplay:10.37,2013-02-07 22:24:00,
2013-02-07 17:29:00,47.3,45.4,29.92,NE,36,4.6,4.6,93,0.11,,,1.21,WeatherDisplay:10.37,2013-02-07 22:29:00,
2013-02-07 17:34:00,47.3,45.4,29.92,North,360,6.9,0.0,93,0.10,RA,,1.21,WeatherDisplay:10.37,2013-02-07 22:34:00,
2013-02-07 17:39:00,47.3,45.4,29.91,ESE,107,3.5,3.5,93,0.08,RA,,1.21,WeatherDisplay:10.37,2013-02-07 22:39:00,
2013-02-07 17:44:00,47.2,45.3,29.91,ENE,68,9.2,9.2,93,0.08,RA,,1.22,WeatherDisplay:10.37,2013-02-07 22:44:00,
2013-02-07 17:49:00,47.2,45.3,29.89,North,360,9.2,9.2,93,0.08,RA,,1.23,WeatherDisplay:10.37,2013-02-07 22:49:00,
2013-02-07 17:54:00,47.2,45.3,29.89,North,360,2.3,2.3,93,0.10,RA,,1.26,WeatherDisplay:10.37,2013-02-07 22:54:00,
2013-02-07 17:59:00,47.1,45.2,29.89,North,360,3.5,3.5,93,0.11,RA,,1.28,WeatherDisplay:10.37,2013-02-07 22:59:00,
2013-02-07 18:04:00,47.1,45.2,29.89,NNE,30,2.3,0.0,93,0.12,RA,,1.30,WeatherDisplay:10.37,2013-02-07 23:04:00,
2013-02-07 18:09:00,47.0,45.1,29.89,NNE,30,0.0,0.0,93,0.12,RA,,1.31,WeatherDisplay:10.37,2013-02-07 23:09:00,
2013-02-07 18:14:00,47.0,45.1,29.89,North,360,4.0,4.0,93,0.13,RA,,1.32,WeatherDisplay:10.37,2013-02-07 23:14:00,
2013-02-07 18:19:00,47.0,45.1,29.88,North,355,6.9,6.9,93,0.12,RA,,1.32,WeatherDisplay:10.37,2013-02-07 23:19:00,
2013-02-07 18:24:00,47.0,45.1,29.87,NE,41,2.3,2.5,93,0.13,RA,,1.33,WeatherDisplay:10.37,2013-02-07 23:24:00,
2013-02-07 18:29:00,46.9,45.0,29.88,NNE,13,3.0,3.2,93,0.15,RA,,1.35,WeatherDisplay:10.37,2013-02-07 23:29:00,
2013-02-07 18:34:00,47.0,45.1,29.88,NW,307,5.8,5.8,93,0.16,RA,,1.38,WeatherDisplay:10.37,2013-02-07 23:34:00,
2013-02-07 18:39:00,46.9,45.0,29.88,NNE,19,4.6,4.6,93,0.18,RA,,1.40,WeatherDisplay:10.37,2013-02-07 23:39:00,
2013-02-07 18:44:00,46.9,45.0,29.89,NW,315,0.0,0.0,93,0.20,RA,,1.42,WeatherDisplay:10.37,2013-02-07 23:44:00,
2013-02-07 18:49:00,46.9,45.0,29.88,NNE,22,4.6,4.6,93,0.20,RA,,1.44,WeatherDisplay:10.37,2013-02-07 23:49:00,
2013-02-07 18:54:00,46.9,45.0,29.89,NNW,346,0.0,0.0,93,0.20,RA,,1.46,WeatherDisplay:10.37,2013-02-07 23:54:00,
2013-02-07 18:59:00,46.9,45.0,29.88,NNW,327,0.0,0.0,93,0.21,RA,,1.49,WeatherDisplay:10.37,2013-02-07 23:59:00,
2013-02-07 19:04:00,46.9,45.0,29.89,WNW,303,9.2,9.2,93,0.22,RA,,1.53,WeatherDisplay:10.37,2013-02-08 00:04:00,
2013-02-07 19:09:00,46.9,45.0,29.89,NNW,340,3.5,0.0,93,0.25,RA,,1.56,WeatherDisplay:10.37,2013-02-08 00:09:00,
2013-02-07 19:14:00,46.8,44.9,29.89,North,9,1.0,2.0,93,0.27,RA,,1.60,WeatherDisplay:10.37,2013-02-08 00:14:00,
2013-02-07 19:19:00,46.8,44.9,29.88,NNW,337,5.8,5.8,93,0.32,RA,,1.65,WeatherDisplay:10.37,2013-02-08 00:19:00,
2013-02-07 19:24:00,46.8,44.9,29.88,North,9,9.0,9.0,93,0.35,RA,,1.69,WeatherDisplay:10.37,2013-02-08 00:24:00,
2013-02-07 19:29:00,46.7,44.8,29.90,North,360,4.0,4.0,93,0.36,RA,,1.71,WeatherDisplay:10.37,2013-02-08 00:29:00,
2013-02-07 19:34:00,46.7,44.8,29.91,North,360,4.6,0.0,93,0.36,RA,,1.73,WeatherDisplay:10.37,2013-02-08 00:34:00,
2013-02-07 19:39:00,46.7,44.8,29.92,North,360,0.0,0.0,93,0.36,RA,,1.76,WeatherDisplay:10.37,2013-02-08 00:39:00,
2013-02-07 19:44:00,46.5,44.6,29.92,North,360,3.5,3.5,93,0.36,RA,,1.79,WeatherDisplay:10.37,2013-02-08 00:44:00,
2013-02-07 19:49:00,46.4,44.5,29.92,North,360,6.9,6.9,93,0.38,RA,,1.82,WeatherDisplay:10.37,2013-02-08 00:49:00,
2013-02-07 19:54:00,46.3,44.4,29.92,North,360,9.2,9.2,93,0.39,RA,,1.86,WeatherDisplay:10.37,2013-02-08 00:54:00,
2013-02-07 19:59:00,46.2,44.3,29.92,North,360,5.8,5.8,93,0.39,RA,,1.89,WeatherDisplay:10.37,2013-02-08 00:59:00,
2013-02-07 20:04:00,46.1,44.2,29.90,NW,321,4.6,4.6,93,0.39,RA,,1.92,WeatherDisplay:10.37,2013-02-08 01:04:00,
2013-02-07 20:09:00,46.0,44.1,29.90,WNW,299,6.9,6.9,93,0.40,RA,,1.96,WeatherDisplay:10.37,2013-02-08 01:09:00,
2013-02-07 20:14:00,46.0,44.1,29.90,NW,315,13.8,13.8,93,0.41,RA,,2.01,WeatherDisplay:10.37,2013-02-08 01:14:00,
2013-02-07 20:19:00,46.0,44.1,29.90,NW,309,4.6,4.6,93,0.40,RA,,2.05,WeatherDisplay:10.37,2013-02-08 01:19:00,
2013-02-07 20:24:00,45.9,44.0,29.90,North,360,5.8,5.8,93,0.39,RA,,2.09,WeatherDisplay:10.37,2013-02-08 01:24:00,
2013-02-07 20:29:00,45.9,44.0,29.90,NNE,32,3.5,3.5,93,0.41,RA,,2.12,WeatherDisplay:10.37,2013-02-08 01:29:00,
2013-02-07 20:34:00,45.9,44.0,29.89,North,360,6.9,6.9,93,0.42,RA,,2.16,WeatherDisplay:10.37,2013-02-08 01:34:00,
2013-02-07 20:39:00,45.8,43.9,29.88,North,360,9.2,9.2,93,0.42,RA,,2.18,WeatherDisplay:10.37,2013-02-08 01:39:00,
2013-02-07 20:45:00,45.8,43.9,29.85,North,360,9.2,9.2,93,0.41,RA,,2.20,WeatherDisplay:10.37,2013-02-08 01:45:00,
2013-02-07 20:50:00,45.7,43.8,29.84,North,360,13.8,13.8,93,0.40,RA,,2.22,WeatherDisplay:10.37,2013-02-08 01:50:00,
2013-02-07 20:55:00,45.7,43.8,29.84,North,360,3.5,3.5,93,0.38,RA,,2.24,WeatherDisplay:10.37,2013-02-08 01:55:00,
2013-02-07 21:00:00,45.7,43.8,29.85,NE,56,11.5,11.5,93,0.35,RA,,2.24,WeatherDisplay:10.37,2013-02-08 02:00:00,
2013-02-07 21:05:00,45.8,43.9,29.86,North,360,2.3,2.3,93,0.32,,,2.24,WeatherDisplay:10.37,2013-02-08 02:05:00,
2013-02-07 21:10:00,45.8,43.9,29.88,North,360,2.3,2.3,93,0.28,RA,,2.25,WeatherDisplay:10.37,2013-02-08 02:10:00,
2013-02-07 21:15:00,45.8,43.9,29.88,North,360,0.0,0.0,93,0.24,RA,,2.25,WeatherDisplay:10.37,2013-02-08 02:15:00,
2013-02-07 21:20:00,45.9,44.0,29.88,NNW,344,0.0,0.0,93,0.20,CLR,,2.25,WeatherDisplay:10.37,2013-02-08 02:20:00,
2013-02-07 21:25:00,45.8,43.9,29.88,North,360,6.9,6.9,93,0.17,CLR,,2.25,WeatherDisplay:10.37,2013-02-08 02:25:00,
2013-02-07 21:30:00,45.8,43.9,29.89,North,360,8.1,8.1,93,0.13,CLR,,2.25,WeatherDisplay:10.37,2013-02-08 02:30:00,
2013-02-07 21:35:00,45.7,43.8,29.89,NNW,331,1.2,0.0,93,0.09,CLR,,2.25,WeatherDisplay:10.37,2013-02-08 02:35:00,
2013-02-07 21:40:00,45.7,43.8,29.89,NW,321,3.5,3.5,93,0.07,CLR,,2.25,WeatherDisplay:10.37,2013-02-08 02:40:00,
2013-02-07 21:45:00,45.6,43.7,29.89,NNW,343,0.0,0.0,93,0.05,CLR,,2.25,WeatherDisplay:10.37,2013-02-08 02:45:00,
2013-02-07 21:50:00,45.6,43.7,29.89,NNW,333,5.8,5.8,93,0.03,CLR,,2.25,WeatherDisplay:10.37,2013-02-08 02:50:00,
2013-02-07 21:55:00,45.5,43.6,29.89,NNW,339,0.0,0.0,93,0.01,CLR,,2.25,WeatherDisplay:10.37,2013-02-08 02:55:00,
2013-02-07 22:00:00,45.5,43.6,29.88,North,360,3.5,3.5,93,0.01,CLR,,2.25,WeatherDisplay:10.37,2013-02-08 03:00:00,
2013-02-07 22:05:00,45.4,43.5,29.89,NW,319,3.5,3.5,93,0.01,CLR,,2.25,WeatherDisplay:10.37,2013-02-08 03:05:00,
2013-02-07 22:10:00,45.4,43.5,29.88,NNW,327,0.0,0.0,93,0.00,CLR,,2.25,WeatherDisplay:10.37,2013-02-08 03:10:00,
2013-02-07 22:15:00,45.4,43.5,29.88,North,355,0.0,0.0,93,0.00,CLR,,2.25,WeatherDisplay:10.37,2013-02-08 03:15:00,
2013-02-07 22:20:00,45.3,43.4,29.88,North,360,6.9,6.9,93,0.00,CLR,,2.25,WeatherDisplay:10.37,2013-02-08 03:20:00,
2013-02-07 22:25:00,45.3,43.4,29.88,North,360,4.6,4.6,93,0.00,CLR,,2.25,WeatherDisplay:10.37,2013-02-08 03:25:00,
2013-02-07 22:30:00,45.3,43.4,29.89,NNE,22,2.3,2.3,93,0.00,CLR,,2.25,WeatherDisplay:10.37,2013-02-08 03:30:00,
2013-02-07 22:35:00,45.2,43.3,29.89,WNW,302,0.0,0.0,93,0.00,CLR,,2.25,WeatherDisplay:10.37,2013-02-08 03:35:00,
2013-02-07 22:40:00,45.2,43.3,29.89,North,360,4.6,0.0,93,0.00,CLR,,2.25,WeatherDisplay:10.37,2013-02-08 03:40:00,
2013-02-07 22:45:00,45.1,42.9,29.89,North,360,4.6,4.6,92,0.00,CLR,,2.25,WeatherDisplay:10.37,2013-02-08 03:45:00,
2013-02-07 22:50:00,45.1,42.9,29.89,NW,311,2.0,2.0,92,0.00,CLR,,2.25,WeatherDisplay:10.37,2013-02-08 03:50:00,
2013-02-07 22:55:00,45.0,42.8,29.88,NW,310,3.5,3.5,92,0.00,CLR,,2.25,WeatherDisplay:10.37,2013-02-08 03:55:00,
2013-02-07 23:00:00,45.0,42.8,29.88,NW,317,5.8,5.8,92,0.00,CLR,,2.25,WeatherDisplay:10.37,2013-02-08 04:00:00,
2013-02-07 23:05:00,45.0,42.8,29.88,NW,324,0.0,0.0,92,0.00,CLR,,2.25,WeatherDisplay:10.37,2013-02-08 04:05:00,
2013-02-07 23:10:00,45.0,42.8,29.89,NNW,346,11.5,11.5,92,0.00,CLR,,2.25,WeatherDisplay:10.37,2013-02-08 04:10:00,
2013-02-07 23:15:00,45.0,42.8,29.89,NNW,335,0.0,0.0,92,0.00,CLR,,2.25,WeatherDisplay:10.37,2013-02-08 04:15:00,
2013-02-07 23:20:00,45.0,42.8,29.89,North,360,10.0,10.0,92,0.00,CLR,,2.25,WeatherDisplay:10.37,2013-02-08 04:20:00,
2013-02-07 23:25:00,45.0,42.8,29.89,NW,325,2.0,2.0,92,0.00,CLR,,2.25,WeatherDisplay:10.37,2013-02-08 04:25:00,
2013-02-07 23:30:00,45.0,42.8,29.89,NNW,333,6.9,6.9,92,0.00,CLR,,2.25,WeatherDisplay:10.37,2013-02-08 04:30:00,
2013-02-07 23:35:00,45.0,42.8,29.89,NNW,337,0.0,0.0,92,0.00,CLR,,2.25,WeatherDisplay:10.37,2013-02-08 04:35:00,
2013-02-07 23:40:00,45.0,42.8,29.89,NNE,18,3.5,3.5,92,0.00,CLR,,2.25,WeatherDisplay:10.37,2013-02-08 04:40:00,
2013-02-07 23:45:00,44.9,42.7,29.89,WNW,303,0.0,0.0,92,0.00,CLR,,2.25,WeatherDisplay:10.37,2013-02-08 04:45:00,
2013-02-07 23:50:00,44.9,42.7,29.88,North,360,0.0,0.0,92,0.00,CLR,,2.25,WeatherDisplay:10.37,2013-02-08 04:50:00,
2013-02-07 23:55:00,44.8,42.6,29.89,NW,314,6.9,6.9,92,0.00,CLR,,2.25,WeatherDisplay:10.37,2013-02-08 04:55:00,